Fallon NAS, NV

3:59 PM PDT on May 29, 2017 (GMT -0700)
Fallon Naval Air Station

Weather History for KNFL - November, 2012

Change the Weather History Date:

Thursday, November 15, 2012

  Actual Average Record
Temperature  
Mean Temperature 38 °F -  
Max Temperature 57 °F 54 °F 73 °F (2016)
Min Temperature 19 °F 25 °F 4 °F (1964)
Degree Days  
Heating Degree Days 27    
Moisture  
Dew Point 21 °F    
Average Humidity 48    
Maximum Humidity 68    
Minimum Humidity 25    
Precipitation  
Precipitation 0.00 in - - ()
Sea Level Pressure  
Sea Level Pressure 30.01 in    
Wind  
Wind Speed 2 mph (ENE)    
Max Wind Speed 7 mph    
Max Gust Speed -    
Visibility 10 miles    
Events      
Averages and records for this station are not official NWS values.
T = Trace of Precipitation, MM = Missing Value Source: NWS Daily Summary

Daily Weather History Graph

Daily Weather History Graph

Search for Another Location

Airport or City:

Trip Planner

Search our weather history database for the weather conditions in past years. The results will help you decide how hot, cold, wet, or windy it might be!

Date:

Astronomy

Nov. 15, 2012 Rise Set
Actual Time 6:39 AM PST 4:39 PM PST
Civil Twilight 6:10 AM PST 5:08 PM PST
Nautical Twilight 5:38 AM PST 5:40 PM PST
Astronomical Twilight 5:06 AM PST 6:12 PM PST
Moon 8:39 AM PST (11/15) 6:36 PM PST (11/15)
Length of Visible Light 10h 57m
Length of Day
10h 00m
Waxing Crescent, 5% of the Moon is Illuminated
Nov 15
Waxing Crescent
Nov 20
First Quarter
Nov 28
Full
Dec 6
Last Quarter
Dec 13
New

Hourly Weather History & Observations

Time (PST) Temp. Windchill Dew Point Humidity Pressure Visibility Wind Dir Wind Speed Gust Speed Precip Events Conditions
12:56 AM 30.0 °F 25.2 °F 18.0 °F 61% 30.07 in 10.0 mi SSW 4.6 mph - N/A   Clear
1:56 AM 28.9 °F - 19.0 °F 67% 30.07 in 10.0 mi Calm Calm - N/A   Clear
2:56 AM 26.1 °F - 15.1 °F 63% 30.06 in 10.0 mi Calm Calm - N/A   Clear
3:56 AM 25.0 °F - 15.1 °F 66% 30.06 in 10.0 mi Calm Calm - N/A   Clear
4:56 AM 21.0 °F - 10.9 °F 65% 30.07 in 10.0 mi Calm Calm - N/A   Clear
5:56 AM 23.0 °F - 12.9 °F 65% 30.07 in 10.0 mi Calm Calm - N/A   Clear
6:22 AM 23.0 °F - 14.0 °F 68% 30.17 in 10.0 mi Calm Calm - N/A   Clear
6:56 AM 19.9 °F - 10.0 °F 65% 30.07 in 10.0 mi Calm Calm - N/A   Scattered Clouds
7:56 AM 32.0 °F - 19.0 °F 59% 30.09 in 10.0 mi Calm Calm - N/A   Scattered Clouds
8:56 AM 39.0 °F - 21.0 °F 49% 30.08 in 10.0 mi Calm Calm - N/A   Scattered Clouds
9:56 AM 45.0 °F - 27.0 °F 49% 30.08 in 10.0 mi Calm Calm - N/A   Scattered Clouds
10:56 AM 50.0 °F - 25.0 °F 38% 30.05 in 10.0 mi Variable 3.5 mph - N/A   Scattered Clouds
11:56 AM 53.1 °F - 21.9 °F 30% 30.02 in 10.0 mi Calm Calm - N/A   Scattered Clouds
12:56 PM 55.9 °F - 23.0 °F 28% 29.99 in 10.0 mi East 5.8 mph - N/A   Scattered Clouds
1:56 PM 57.9 °F - 21.9 °F 25% 29.97 in 10.0 mi ENE 4.6 mph - N/A   Scattered Clouds
2:56 PM 57.0 °F - 25.0 °F 29% 29.95 in 10.0 mi NE 6.9 mph - N/A   Mostly Cloudy
3:56 PM 54.0 °F - 25.0 °F 33% 29.94 in 10.0 mi NE 6.9 mph - N/A   Mostly Cloudy
4:56 PM 50.0 °F - 25.0 °F 38% 29.93 in 10.0 mi North 4.6 mph - N/A   Overcast
5:56 PM 48.9 °F - 24.1 °F 38% 29.94 in 10.0 mi NNE 4.6 mph - N/A   Overcast
6:56 PM 48.0 °F - 24.1 °F 39% 29.94 in 10.0 mi Calm Calm - N/A   Overcast
7:56 PM 46.9 °F - 26.1 °F 44% 29.94 in 10.0 mi WSW 3.5 mph - N/A   Overcast
8:56 PM 46.9 °F - 27.0 °F 46% 29.94 in 10.0 mi Calm Calm - N/A   Overcast
9:56 PM 46.0 °F 43.1 °F 25.0 °F 44% 29.94 in 10.0 mi SE 5.8 mph - N/A   Overcast
10:56 PM 46.0 °F 44.8 °F 25.0 °F 44% 29.94 in 10.0 mi ESE 3.5 mph - N/A   Overcast
11:56 PM 46.0 °F - 24.1 °F 42% 29.93 in 10.0 mi Calm Calm - N/A   Overcast